Location: Unspecified
(0.0000°N, 0.0000°E)
Time: 19:24:43
(UTC+02:00)

SWIFT - Visible Passes

Search period start: 21 April 2018 00:00
Search period end: 01 May 2018 00:00
Orbit: 546 x 562 km, 20.6° (Epoch: 20 April)

Date Brightness Start Highest point End Pass type
(mag) Time Alt. Az. Time Alt. Az. Time Alt. Az.
21 Apr 4.9 06:54:11 10° NNW 06:56:33 15° NNE 06:58:55 10° NE visible
21 Apr 2.5 20:31:37 10° WSW 20:35:50 58° SSE 20:39:50 11° E visible
21 Apr 4.8 22:13:53 10° W 22:15:31 20° WNW 22:15:31 20° WNW visible
22 Apr 4.6 06:47:58 10° NNW 06:51:00 19° NNE 06:54:00 10° ENE visible
22 Apr 2.3 20:25:55 10° WSW 20:30:12 83° SSE 20:34:29 10° ENE visible
22 Apr 4.7 22:08:36 10° WNW 22:10:45 21° NW 22:10:45 21° NW visible
23 Apr 4.2 06:42:14 12° NNW 06:45:24 25° NNE 06:48:54 10° ENE visible
23 Apr 2.6 20:20:17 10° WSW 20:24:33 69° NNW 20:28:48 10° ENE visible
23 Apr 4.7 22:03:28 10° WNW 22:05:59 19° NNW 22:05:59 19° NNW visible
24 Apr 3.7 06:37:23 19° NNW 06:39:47 34° NNE 06:43:37 10° E visible
24 Apr 3.3 20:14:46 10° W 20:18:54 48° NNW 20:23:02 10° NE visible
24 Apr 4.9 21:58:32 10° NW 22:01:01 15° NNW 22:01:11 15° NNW visible
25 Apr 3.0 06:32:34 31° NNW 06:34:10 48° NNE 06:38:13 10° E visible
25 Apr 5.1 21:53:58 10° NW 21:55:29 12° NNW 21:56:20 11° N visible
26 Apr 2.4 06:27:47 55° NW 06:28:31 70° NNE 06:32:42 10° ESE visible
27 Apr 2.2 06:23:00 80° SSE 06:23:00 80° SSE 06:27:05 10° ESE visible
28 Apr 3.0 06:18:12 44° SSE 06:18:12 44° SSE 06:21:22 10° ESE visible
29 Apr 3.9 06:13:22 26° SSE 06:13:22 26° SSE 06:15:34 10° SE visible
30 Apr 4.6 06:08:29 17° SSE 06:08:29 17° SSE 06:09:40 10° SE visible
